Location: Grossmotten
(48.5500°N, 15.3833°E)
Time: 08:31:19
(UTC+00:00)

Cosmos 839 Rocket - Pass Details

Date: 15 November 2019
Orbit: 968 x 2084 km, 65.9° (Epoch: 07 December)

Event Time Altitude Azimuth Distance (km) Brightness Sun altitude
Exits shadow 04:36:33 10° 241° (WSW) 3,059 6.1 -14.7°
Reaches altitude 10° 04:36:37 10° 242° (WSW) 3,036 6.1 -14.7°
Maximum altitude 04:43:18 48° 316° (NW) 1,309 4.3 -13.6°
Drops below altitude 10° 04:49:18 10° 31° (NNE) 2,723 6.6 -12.7°
Sets 04:51:53 0° 37° (NE) 3,671 7.3 -12.3°
